When you browse on this site, cookies collect data to enhance your experience and personalize the content and advertising you see.
Visit our Privacy Policy to learn more. By continuing to use the site, you agree to this use of cookies and data.
  • In Portugal
  • List of Countries
  • For 7 days
  • Water Temperature
  • Satellite Maps
  • Weather Map
  • Weather Widgets
  • user-avatar
    Login

    Hourly Weather Charbinowice

    Today, 26 March, Tuesday

    Time Temperature Precipitation Wind Pressure Humidity
    00:00 +1°C° 0.1 mm 4 mps 743 mmHg 79%
    01:00 +2°C° 0 mm 3 mps 744 mmHg 81%
    02:00 +2°C° 0.1 mm 3 mps 744 mmHg 83%
    03:00 +2°C° 0.1 mm 3 mps 744 mmHg 85%
    04:00 +1°C° 0.1 mm 3 mps 745 mmHg 87%
    05:00 +1°C° 0 mm 4 mps 745 mmHg 86%
    06:00 +1°C° 0 mm 4 mps 745 mmHg 85%
    07:00 +1°C° 0 mm 5 mps 746 mmHg 82%
    08:00 +2°C° 0 mm 5 mps 746 mmHg 75%
    09:00 +3°C° 0 mm 6 mps 746 mmHg 69%
    10:00 +4°C° 0 mm 6 mps 746 mmHg 62%
    11:00 +4°C° 0 mm 7 mps 745 mmHg 59%
    12:00 +5°C° 0 mm 7 mps 745 mmHg 55%
    13:00 +6°C° 0 mm 8 mps 744 mmHg 52%
    14:00 +6°C° 0.1 mm 8 mps 744 mmHg 53%
    15:00 +5°C° 0.1 mm 8 mps 744 mmHg 54%
    16:00 +5°C° 0.1 mm 9 mps 743 mmHg 55%
    17:00 +3°C° 0.1 mm 9 mps 743 mmHg 59%
    18:00 +2°C° 0.1 mm 8 mps 744 mmHg 62%
    19:00 +1°C° 0.1 mm 8 mps 744 mmHg 66%
    20:00 +2°C° 0.4 mm 7 mps 744 mmHg 68%
    21:00 +1°C° 0.4 mm 6 mps 745 mmHg 70%
    22:00 +1°C° 0.4 mm 6 mps 746 mmHg 72%
    23:00 0°C° 0 mm 5 mps 746 mmHg 73%

    Tomorrow, 27 March, Wednesday

    Time Temperature Precipitation Wind Pressure Humidity
    00:00 -1°C° 0 mm 4 mps 747 mmHg 74%
    01:00 -2°C° 0 mm 4 mps 747 mmHg 75%
    02:00 -2°C° 0 mm 4 mps 748 mmHg 76%
    03:00 -3°C° 0 mm 4 mps 748 mmHg 76%
    04:00 -3°C° 0 mm 4 mps 749 mmHg 77%
    05:00 -3°C° 0 mm 4 mps 749 mmHg 76%
    06:00 -2°C° 0 mm 4 mps 750 mmHg 75%
    07:00 -2°C° 0 mm 4 mps 750 mmHg 74%
    08:00 0°C° 0 mm 4 mps 751 mmHg 68%
    09:00 +1°C° 0 mm 4 mps 751 mmHg 61%
    10:00 +4°C° 0 mm 4 mps 752 mmHg 55%
    11:00 +5°C° 0 mm 4 mps 751 mmHg 50%
    12:00 +6°C° 0 mm 4 mps 751 mmHg 45%
    13:00 +6°C° 0 mm 4 mps 751 mmHg 41%
    14:00 +7°C° 0 mm 4 mps 751 mmHg 39%
    15:00 +7°C° 0 mm 4 mps 751 mmHg 38%
    16:00 +7°C° 0 mm 4 mps 751 mmHg 37%
    17:00 +5°C° 0 mm 3 mps 751 mmHg 42%
    18:00 +5°C° 0 mm 2 mps 751 mmHg 48%
    19:00 +5°C° 0 mm 1 mps 752 mmHg 53%
    20:00 +4°C° 0 mm 2 mps 752 mmHg 55%
    21:00 +4°C° 0 mm 2 mps 752 mmHg 58%
    22:00 +2°C° 0 mm 3 mps 752 mmHg 60%
    23:00 +3°C° 0 mm 3 mps 752 mmHg 64%

    Day after tomorrow, 28 March, Thursday

    Time Temperature Precipitation Wind Pressure Humidity
    00:00 +3°C° 0 mm 3 mps 752 mmHg 68%
    01:00 +3°C° 0 mm 4 mps 752 mmHg 71%
    02:00 +3°C° 0 mm 4 mps 752 mmHg 74%
    03:00 +3°C° 0 mm 4 mps 752 mmHg 77%
    04:00 +3°C° 0 mm 4 mps 752 mmHg 80%
    05:00 +4°C° 0.2 mm 4 mps 752 mmHg 81%
    06:00 +3°C° 0.2 mm 5 mps 752 mmHg 82%
    07:00 +3°C° 0.2 mm 5 mps 752 mmHg 83%
    08:00 +5°C° 0 mm 5 mps 752 mmHg 81%
    09:00 +6°C° 0 mm 4 mps 752 mmHg 78%
    10:00 +7°C° 0 mm 4 mps 753 mmHg 75%
    11:00 +8°C° 0.2 mm 4 mps 753 mmHg 71%
    12:00 +10°C° 0.2 mm 4 mps 753 mmHg 67%
    13:00 +11°C° 0.2 mm 3 mps 753 mmHg 63%
    14:00 +11°C° 0.2 mm 3 mps 753 mmHg 63%
    15:00 +11°C° 0.2 mm 3 mps 753 mmHg 62%
    16:00 +11°C° 0.2 mm 3 mps 753 mmHg 62%
    17:00 +9°C° 0.1 mm 2 mps 753 mmHg 68%
    18:00 +8°C° 0.1 mm 2 mps 754 mmHg 74%
    19:00 +7°C° 0.1 mm 2 mps 754 mmHg 81%
    20:00 +7°C° 0 mm 1 mps 755 mmHg 83%
    21:00 +7°C° 0 mm 1 mps 755 mmHg 86%
    22:00 +6°C° 0 mm 1 mps 756 mmHg 88%
    23:00 +5°C° 0 mm 0 mps 756 mmHg 89%

    29 March, Friday

    Time Temperature Precipitation Wind Pressure Humidity
    00:00 +5°C° 0 mm 0 mps 756 mmHg 89%
    01:00 +4°C° 0 mm 0 mps 756 mmHg 90%
    02:00 +5°C° 0 mm 1 mps 756 mmHg 90%
    03:00 +5°C° 0 mm 1 mps 756 mmHg 91%
    04:00 +4°C° 0 mm 1 mps 756 mmHg 91%
    05:00 +5°C° 0 mm 1 mps 756 mmHg 89%
    06:00 +5°C° 0 mm 2 mps 756 mmHg 87%
    07:00 +5°C° 0 mm 2 mps 756 mmHg 85%
    08:00 +7°C° 0 mm 2 mps 756 mmHg 78%
    09:00 +9°C° 0 mm 2 mps 756 mmHg 70%
    10:00 +10°C° 0 mm 3 mps 756 mmHg 63%
    11:00 +11°C° 0 mm 3 mps 756 mmHg 58%
    12:00 +12°C° 0 mm 3 mps 755 mmHg 53%
    13:00 +13°C° 0 mm 3 mps 755 mmHg 48%
    14:00 +13°C° 0 mm 3 mps 755 mmHg 48%
    15:00 +13°C° 0 mm 3 mps 754 mmHg 47%
    16:00 +14°C° 0 mm 3 mps 754 mmHg 47%
    17:00 +13°C° 0 mm 2 mps 754 mmHg 53%
    18:00 +12°C° 0 mm 2 mps 754 mmHg 58%
    19:00 +9°C° 0 mm 2 mps 754 mmHg 64%
    20:00 +9°C° 0 mm 2 mps 754 mmHg 67%
    21:00 +8°C° 0 mm 2 mps 754 mmHg 70%
    22:00 +8°C° 0 mm 2 mps 754 mmHg 73%
    23:00 +7°C° 0 mm 2 mps 754 mmHg 76%

    30 March, Saturday

    Time Temperature Precipitation Wind Pressure Humidity
    00:00 +7°C° 0 mm 2 mps 754 mmHg 79%
    01:00 +7°C° 0 mm 2 mps 753 mmHg 81%
    02:00 +6°C° 0 mm 2 mps 753 mmHg 83%
    03:00 +6°C° 0 mm 2 mps 753 mmHg 84%
    04:00 +6°C° 0 mm 2 mps 753 mmHg 85%
    05:00 +6°C° 0 mm 2 mps 753 mmHg 83%
    06:00 +8°C° 0 mm 1 mps 753 mmHg 80%
    07:00 +8°C° 0 mm 1 mps 753 mmHg 78%
    08:00 +10°C° 0 mm 1 mps 753 mmHg 72%
    09:00 +12°C° 0 mm 1 mps 752 mmHg 66%
    10:00 +14°C° 0 mm 1 mps 752 mmHg 61%
    11:00 +15°C° 0 mm 1 mps 752 mmHg 56%
    12:00 +16°C° 0 mm 1 mps 751 mmHg 52%
    13:00 +18°C° 0 mm 1 mps 750 mmHg 48%
    14:00 +18°C° 0 mm 1 mps 750 mmHg 47%
    15:00 +18°C° 0 mm 1 mps 749 mmHg 45%
    16:00 +18°C° 0 mm 1 mps 749 mmHg 44%
    17:00 +16°C° 0 mm 1 mps 749 mmHg 49%
    18:00 +14°C° 0 mm 1 mps 748 mmHg 53%
    19:00 +13°C° 0 mm 1 mps 748 mmHg 58%
    20:00 +12°C° 0 mm 1 mps 748 mmHg 61%
    21:00 +11°C° 0 mm 1 mps 748 mmHg 63%
    22:00 +11°C° 0 mm 1 mps 748 mmHg 66%
    23:00 +10°C° 0 mm 1 mps 747 mmHg 68%

    31 March, Sunday

    Time Temperature Precipitation Wind Pressure Humidity
    00:00 +10°C° 0 mm 1 mps 747 mmHg 70%
    01:00 +9°C° 0 mm 1 mps 747 mmHg 72%
    02:00 +9°C° 0 mm 1 mps 746 mmHg 73%
    03:00 +9°C° 0 mm 1 mps 746 mmHg 74%
    04:00 +7°C° 0 mm 2 mps 746 mmHg 75%
    05:00 +8°C° 0 mm 2 mps 746 mmHg 73%
    06:00 +9°C° 0 mm 2 mps 745 mmHg 71%
    07:00 +9°C° 0 mm 2 mps 745 mmHg 69%
    08:00 +12°C° 0 mm 2 mps 745 mmHg 61%
    09:00 +13°C° 0 mm 3 mps 745 mmHg 54%
    10:00 +16°C° 0 mm 3 mps 744 mmHg 46%
    11:00 +17°C° 0 mm 3 mps 744 mmHg 44%
    12:00 +18°C° 0 mm 3 mps 744 mmHg 41%
    13:00 +18°C° 0 mm 4 mps 743 mmHg 38%
    14:00 +18°C° 0 mm 4 mps 743 mmHg 40%
    15:00 +18°C° 0 mm 4 mps 743 mmHg 42%
    16:00 +17°C° 0 mm 4 mps 743 mmHg 44%
    17:00 +14°C° 0 mm 5 mps 744 mmHg 53%
    18:00 +13°C° 0 mm 6 mps 744 mmHg 63%
    19:00 +10°C° 0 mm 7 mps 745 mmHg 72%
    20:00 +9°C° 0.1 mm 6 mps 745 mmHg 73%
    21:00 +8°C° 0.1 mm 6 mps 745 mmHg 74%
    22:00 +7°C° 0.1 mm 6 mps 746 mmHg 75%
    23:00 +5°C° 0.2 mm 6 mps 746 mmHg 74%
    Show more